Погода в Приморье

Россия / Калининградская область     54°56′27″N   20°02′22″E
темп.,
°C
ветер,
м/с
пор.,
м/с
влажн.,
%
обл.,
%
осадки,
мм/ч
давл.,
гПа
погр.,
м
6 мая, чт
чт623:00+7ююз61081100 0.0 997139
02:00+7юз11158197 0.1 996704
05:00+6зюз141994100 1.2 9961202
08:00+4зюз162196100 2.1 9981242
11:00+5зюз151986100 0.1 9991142
14:00+6зюз15207999 0.3 10011033
17:00+7з13197498 0.1 1001673
20:00+6зюз1219755 0.1 1002783
7 мая, пт
пт723:00+7зюз9137566 0.0 1003527
02:00+6зюз91279100 0.0 1003503
05:00+6юз71080100 0.0 1003497
08:00+6зюз5684100 0.0 1003371
11:00+6з4586100 0.0 1004317
14:00+6сз4589100 0.0 1004333
17:00+5сз6885100 0.0 1005507
20:00+5сз6780100 0.0 1007565
8 мая, сб
сб823:00+5сз89778 0.0 1008640
02:00+5сз5773100 0.0 1009410
05:00+6з798598 0.0 1010645
08:00+6з91190100 0.1 1012498
11:00+6з912885 0.4 1013453
14:00+6зсз811905 0.6 1014414
17:00+6зсз710895 0.0 1016378
20:00+6з710830 0.0 1017291
9 мая, вс
вс923:00+7зюз697872 0.0 1017200
02:00+6ююз6880100 0.0 1018163
05:00+5ю7978100 0.0 1018239
08:00+7ю8127899 0.0 1017247
11:00+10ю91367100 0.0 1016166
14:00+10ю81173100 0.0 101599
17:00+12ю8117383 0.0 101475
20:00+11ю7979100 0.0 101458
10 мая, пн
пн1023:00+10ююв8128296 0.0 101593
02:00+10ююв811805 0.0 101594
05:00+10ююв8128169 0.0 1015116
08:00+10ююв81081100 0.0 101692
11:00+13ююв89725 0.0 101559
14:00+14ююв89685 0.0 101552
17:00+15ююв897326 0.0 101455
20:00+13юв66840 0.0 101425